EHI
0 0 0 0 0 0 0 0 0 0 0 0 0 0 0 0 0 0 0 0 0 0 0 0 0 0 0 0 0 0 0 0 0 0 0 0 0 0 0 0 0 0 0 0
0 0 0 0 0 0 0 0 0 0 0 0 0 0 0 0 0 0 0 0 0 0 0 0 0 0 0 0 0 0 0 0 0 0 0 0 0 0 0 0 0 0 0 0
0 0 0 0 0 0 0 0 0 0 0 0 0 0 0 0 0 0 0 0 0 0 0 0 0 0 0 0 0 0 0 0 0 0 0 0 0 0 0 0 0 0 0 0
0 0 0 0 0 0 0 0 0 0 0 0 0 0 0 0 0 0 0 0 0 0 0 0 0 0 0 0 0 0 0 0 0 0 0 0 0 0 0 0 0 0 0 0
0 0 0 0 0 0 0 0 0 0 0 0 0 0 0 0 0 0 0 0 0 0 0 0 0 0 0 0 0 0 0 0 0 0 0 0 0 0 0 0 0 0 0 0
0 0 0 0 0 0 0 0 0 0 0 0 0 0 0 0 0 0 0 0 0 0 0 0 0 0 0 0 0 0 0 0 0 0 0 0 0 0 0 0 0 0 0 0
0 0 0 0 0 0 0 0 0 0 0 0 0 0 0 0 0 0 0 0 0 0 0 0 0 0 0 0 0 0 0 0 0 0 0 0 0 0 0 0 0 0 0 0
0 0 0 0 0 0 0 0 0 0 0 0 0 0 0 0 0 0 0 0 0 0 0 0 0 0 0 0 0 0 0 0 0 0 0 0 0 0 0 0 0 0 0 0
0 0 0 0 0 0 0 0 0 0 0 0 0 0 0 0 0 0 0 0 0 0 0 0 0 0 0 0 0 0 0 0 0 0 0 0 0 0 0 0 0 0 0 0
0 0 0 0 0 0 0 0 0 0 0 0 0 0 0 0 0 0 0 0 0 0 0 0 0 0 0 0 0 0 0 0 0 0 0 0 0 0 0 0 0 0 0 0
0 0 0 0 0 0 0 0 0 0 0 0 0 0 0 0 0 0 0 0 0 0 0 0 0 0 0 0 0 0 0 0 0 0 0 0 0 0 0 0 0 0 0 0
0 0 0 0 0 0 0 0 0 0 0 0 0 0 0 0 0 0 0 0 0 0 0 0 0 0 0 0 0 0 0 0 0 0 0 0 0 0 0 0 0 0 0 0
0 0 0 0 0 0 0 0 0 0 0 0 0 0 0 0 0 0 0 0 0 0 0 0 0 0 0 0 0 0 0 0 0 0 0 0 0 0 0 0 0 0 0 0
0 0 0 0 0 0 0 0 0 0 0 0 0 0 0 0 0 0 0 0 0 0 0 0 0 0 0 0 0 0 0 0 0 0 0 0 0 0 0 0 0 0 0 0
0 0 0 0 0 0 0 0 0 0 0 0 0 0 0 0 0 0 0 0 0 0 0 0 0 0 0 0 0 0 0 0 0 0 0 0 0 0 0 0 0 0 0 0
0 0 0 0 0 0 0 0 0 0 0 0 0 0 0 0 0 0 0 0 0 0 0 0 0 0 0 0 0 0 0 0 0 0 0 0 0 0 0 0 0 0 0 0
0 0 0 0 0 0 0 0 0 0 0 0 0 0 0 0 0 0 0 0 0 0 0 0 0 0 0 0 0 0 0 0 0 0 0 0 0 0 0 0 0 0 0 0
0 0 0 0 0 0 0 0 0 0 0 0 0 0 0 0 0 0 0 0 0 0 0 0 0 0 0 0 0 0 0 0 0 0 0 0 0 0 0 0 0 0 0 0
0 0 0 0 0 0 0 0 0 0 0 0 0 0 0 0 0 0 0 0 0 0 0 0 0 0 0 0 0 0 0 0 0 0 0 0 0 0 0 0 0 0 0 0
0 0 0 0 0 0 0 0 0 0 0 0 0 0 0 0 0 0 0 0 0 0 0 0 0 0 0 0 0 0 0 0 0 0 0 0 0 0 0 0 0 0 0 0
0 0 0 0 0 0 0 0 0 0 0 0 0 0 0 0 0 0 0 0 0 0 0 0 0 0 0 0 0 0 0 0 0 0 0 0 0 0 0 0 0 0 0 0
0 0 0 0 0 0 0 0 0 0 0 0 0 0 0 0 0 0 0 0 0 0 0 0 0 0 0 0 0 0 0 0 0 0 0 0 0 0 0 0 0 0 0 0
0 0 0 0 0 0 0 0 0 0 0 0 0 0 0 0 0 0 0 0 0 0 0 0 0 0 0 0 0 0 0 0 0 0 0 0 0 0 0 0 0 0 0 0
0 0 0 0 0 0 0 0 0 0 0 0 0 0 0 0 0 0 0 0 0 0 0 0 0 0 0 0 0 0 0 0 0 0 0 0 0 0 0 0 0 0 0 0
0 0 0 0 0 0 0 0 0 0 0 0 0 0 0 0 0 0 0 0 0 0 0 0 0 0 0 0 0 0 0 0 0 0 0 0 0 0 0 0 0 0 0 0
0 0 0 0 0 0 0 0 0 0 0 0 0 0 0 0 0 0 0 0 0 0 0 0 0 0 0 0 0 0 0 0 0 0 0 0 0 0 0 0 0 0 0 0
0 0 0 0 0 0 0 0 0 0 0 0 0 0 0 0 0 0 0 0 0 0 0 0 0 0 0 0 0 0 0 0 0 0 0 0 0 0 0 0 0 0 0 0
Wind_Speed
2 2 2 2 2 2 2 2 3 2 1 3 2 1 2 3 4 6 7 8 9 9 9 10 10 11 11 11 11 11 12 12 12 10 10 10 11 10 10 9 8 6 6 6
3 3 2 2 3 1 1 1 2 1 3 2 0 2 2 3 3 4 5 6 7 7 8 9 9 9 10 10 10 10 12 12 11 11 11 11 10 9 9 9 8 8 7 6
3 5 3 4 3 1 1 1 3 3 3 1 1 0 1 1 2 2 3 4 5 6 6 7 7 8 8 8 9 10 10 10 10 10 10 9 9 9 9 8 8 8 7 6
2 4 2 5 1 2 1 2 3 3 2 2 3 1 0 0 1 1 2 3 4 4 5 5 6 6 6 8 9 9 9 9 9 9 9 8 9 9 8 6 6 6 7 6
1 2 6 6 1 2 2 4 4 4 3 2 2 2 2 1 1 1 1 1 2 2 3 4 6 6 6 8 8 9 9 9 8 7 7 8 8 7 6 6 6 5 5 6
1 1 4 4 1 1 2 5 3 5 5 4 4 0 3 1 2 2 2 2 2 2 3 5 5 5 6 7 8 8 8 7 7 7 7 7 7 6 5 5 5 5 6 5
2 3 8 5 2 2 2 5 2 4 5 6 5 5 2 3 3 2 2 2 2 3 4 4 5 5 6 6 7 6 6 6 6 6 6 6 6 5 6 6 6 6 5 5
3 3 8 2 3 5 6 3 2 3 5 6 4 2 3 3 3 3 3 2 3 3 3 4 4 5 5 6 5 5 5 6 6 7 6 6 5 5 5 5 6 6 6 6
8 8 5 4 6 4 3 3 3 4 4 5 5 4 4 3 3 3 2 2 2 2 2 3 4 4 4 5 5 6 6 6 6 6 6 6 6 6 5 5 5 5 5 6
6 8 7 6 6 5 4 4 3 4 4 6 6 5 5 4 3 3 2 2 1 2 2 2 3 3 3 4 5 5 6 6 6 6 7 6 5 4 4 5 5 5 6 6
7 8 7 6 6 6 4 3 3 3 4 6 6 6 5 5 4 3 2 2 2 1 1 1 2 3 4 4 4 5 5 5 5 5 6 6 5 4 5 4 5 6 5 5
9 8 6 6 4 3 4 5 5 5 3 3 6 6 5 5 4 4 3 2 1 1 0 1 2 3 4 4 4 4 4 4 4 4 4 5 5 6 8 9 12 13 13 11
7 4 5 6 4 3 4 5 5 6 6 5 4 5 6 4 4 4 3 3 2 1 1 1 2 3 3 3 3 3 4 4 4 4 5 5 5 6 7 8 10 12 13 15
6 4 5 5 5 4 4 4 3 3 4 4 5 5 5 4 4 4 3 3 2 1 1 1 1 3 3 3 3 3 4 5 5 4 4 5 5 6 6 7 8 7 10 14
6 6 7 6 4 3 3 3 3 4 4 4 4 5 6 6 5 4 3 2 2 1 1 1 2 3 3 3 3 4 4 3 4 4 4 5 5 5 6 7 7 8 7 9
5 5 5 5 6 5 3 5 6 6 6 5 5 6 6 5 4 3 3 3 2 1 1 1 2 3 3 3 3 3 3 7 7 5 5 5 5 6 6 6 7 7 7 7
4 6 5 6 6 6 6 7 7 6 6 6 7 6 6 5 4 3 2 2 2 1 1 1 2 3 2 2 3 3 3 5 9 6 5 5 5 6 6 6 7 7 7 9
9 9 8 7 7 6 6 5 5 6 6 6 6 6 6 6 5 4 3 2 1 0 1 2 2 2 2 3 2 2 3 4 4 5 5 5 6 5 6 6 7 8 7 8
6 7 7 7 7 6 5 5 5 5 5 6 7 7 5 4 4 3 3 2 2 2 2 2 3 2 2 4 4 2 3 4 5 5 5 8 7 6 6 7 7 7 8 8
4 4 4 3 3 4 4 4 4 5 5 6 6 6 5 4 4 4 3 3 3 2 2 2 1 2 3 4 5 2 3 4 5 5 5 5 6 6 6 7 7 7 7 7
3 2 2 2 1 1 3 4 5 5 5 6 6 6 5 4 4 4 3 2 2 2 1 2 1 2 3 4 4 2 3 4 4 4 5 5 6 6 6 7 7 8 7 7
2 2 2 1 2 1 1 2 4 5 5 5 5 5 5 4 3 3 3 3 2 2 1 1 1 4 5 4 1 2 3 4 4 4 5 5 6 6 7 7 7 7 7 7
3 2 2 2 3 2 2 2 3 4 5 5 6 5 5 4 3 3 2 2 1 2 1 1 4 6 7 2 1 2 3 4 4 5 5 5 6 6 6 7 7 7 7 7
3 3 2 2 3 3 3 2 3 3 4 3 4 4 4 3 2 2 1 1 2 2 1 3 5 6 5 1 2 3 3 4 5 5 5 5 5 5 6 6 6 6 6 7
4 3 3 4 4 4 4 3 3 3 3 3 3 3 3 3 3 2 2 1 2 1 1 3 5 6 2 2 2 3 3 4 5 5 4 4 5 5 6 6 6 6 6 6
4 4 4 5 4 4 4 4 4 3 3 3 3 2 2 2 2 2 1 1 2 2 1 2 2 3 2 2 3 4 4 5 5 5 5 5 6 6 6 6 8 6 6 6
3 3 3 2 3 4 4 4 4 5 4 4 3 3 3 3 2 2 2 1 1 1 1 2 2 2 2 3 3 4 4 4 4 5 5 5 5 5 6 7 6 6 6 7
Wind_Direction
271 283 288 313 338 48 114 170 179 221 250 286 307 347 11 21 22 26 24 25 25 23 20 19 20 20 22 24 26 30 37 39 36 33 33 33 33 33 32 32 31 29 29 24
317 327 329 336 332 8 118 140 165 168 279 287 59 81 46 23 26 27 19 20 23 24 22 20 18 18 21 23 22 28 35 34 30 31 32 31 29 29 31 30 26 28 28 23
304 315 346 310 279 225 204 204 176 205 235 173 126 136 308 343 15 14 12 18 23 22 20 19 16 16 20 20 24 31 33 30 27 28 29 26 25 27 26 22 23 23 19 18
321 6 298 259 269 193 206 248 219 232 231 188 196 188 136 158 159 2 10 17 15 14 15 15 16 18 20 26 29 30 29 25 21 23 23 20 22 22 16 13 16 14 9 6
36 322 287 299 266 176 187 282 224 212 213 168 136 68 333 258 161 155 77 48 21 13 17 18 16 12 26 30 27 27 23 17 14 16 18 18 18 11 6 7 8 5 -0 358
114 288 266 271 276 189 92 296 244 189 192 170 139 150 266 194 146 123 91 75 55 34 35 29 11 13 35 28 25 19 9 4 5 11 14 12 7 1 358 1 358 355 354 352
196 244 268 261 256 117 156 261 253 185 187 174 190 209 198 141 133 124 104 82 67 54 40 19 6 23 34 25 13 355 351 357 4 6 5 2 359 357 354 354 352 351 345 341
179 221 260 241 146 186 222 252 220 192 187 185 195 159 138 141 134 121 102 76 66 58 35 14 13 27 27 10 346 344 354 1 1 359 358 359 356 351 350 350 347 343 341 337
201 222 241 217 217 236 210 223 223 200 196 177 175 179 171 160 149 136 123 99 74 74 43 16 14 25 19 347 342 350 359 359 352 351 352 352 351 347 347 349 346 340 338 331
266 264 256 251 250 252 225 221 225 202 185 172 180 180 174 165 160 155 148 136 117 94 54 9 3 11 359 342 349 357 357 352 350 350 346 346 345 341 339 337 333 331 329 324
260 274 292 274 240 239 237 225 215 195 184 181 175 177 175 173 173 170 159 147 131 124 99 345 352 355 350 350 355 356 349 346 344 342 336 333 331 325 324 307 314 318 314 309
233 232 219 256 262 228 219 223 209 192 186 183 179 178 169 171 171 164 161 151 136 135 100 325 344 341 339 343 351 350 343 339 335 330 327 326 325 323 324 322 323 323 320 317
241 258 235 259 270 234 221 226 212 196 189 183 180 171 165 166 165 158 158 162 175 193 219 296 332 330 331 335 341 342 329 325 321 323 323 323 324 324 323 323 324 324 325 325
246 254 268 254 251 250 232 225 200 186 184 172 165 155 151 150 151 163 177 186 181 175 204 284 313 319 322 326 332 328 318 319 322 312 313 315 316 316 315 318 321 320 324 326
245 227 240 260 267 258 226 184 176 190 180 169 158 157 159 163 173 181 177 161 145 152 224 278 302 309 319 326 330 324 319 314 314 311 313 313 314 314 313 313 313 314 318 322
270 263 247 242 243 239 218 205 204 208 193 181 175 176 172 166 159 153 151 149 155 204 247 270 291 303 316 327 328 322 318 326 329 322 319 318 318 317 317 317 316 316 317 318
246 255 239 239 238 234 223 218 213 208 192 186 186 171 153 145 145 156 166 171 180 212 238 268 292 309 323 325 320 317 316 320 329 326 317 316 315 314 314 314 313 312 310 313
232 240 238 235 234 233 230 217 205 196 193 185 162 153 160 168 178 181 177 159 146 216 258 276 291 315 321 319 317 312 316 315 315 314 314 312 310 309 310 310 311 311 311 313
250 246 244 238 229 218 213 207 198 186 171 159 160 169 174 175 171 165 156 157 183 235 269 281 316 335 317 315 326 316 317 314 313 313 312 314 318 312 309 308 309 311 312 314
262 256 246 239 222 203 198 188 171 164 163 158 156 156 162 168 164 161 165 190 211 226 259 289 319 308 305 302 321 312 311 310 311 312 312 310 309 309 309 310 312 311 312 314
264 259 233 213 214 194 178 169 163 164 160 157 163 170 172 168 165 165 172 210 234 233 254 300 314 294 291 305 324 319 313 311 309 306 307 308 308 308 308 310 311 312 313 313
236 224 210 182 159 156 151 151 155 153 150 153 157 156 157 165 171 180 198 204 213 247 245 234 260 291 305 322 329 314 308 305 303 301 301 303 305 307 308 310 310 308 307 307
221 210 200 191 178 163 137 144 156 158 162 166 168 170 172 174 174 180 212 211 216 261 264 244 288 304 316 341 314 301 301 300 298 298 299 301 302 303 305 305 303 304 304 305
208 200 192 168 146 153 177 184 163 156 157 159 166 167 162 161 183 199 189 211 243 272 257 285 301 308 324 343 295 292 293 293 292 292 295 298 300 301 300 300 301 302 302 302
203 194 181 174 184 196 189 165 150 152 153 156 164 166 166 167 175 177 170 201 250 283 287 294 302 313 323 289 285 287 288 287 290 296 295 298 298 298 297 298 299 300 299 299
201 202 203 203 197 184 170 167 175 178 173 173 178 176 168 157 153 152 159 188 232 272 280 280 291 300 292 284 282 283 285 294 304 303 295 294 293 294 295 299 300 298 296 295
198 198 193 201 201 186 177 177 183 190 188 183 182 177 170 162 160 166 173 190 222 245 258 268 275 279 281 281 282 282 284 287 290 292 291 288 288 290 292 294 294 295 294 294